Wind_Speed
43 45 43 44 42 39 39 39 39 37 35 34 31 27 24 19 17 15 12 11 8 7
39 39 42 41 40 39 37 37 36 36 35 34 30 27 23 21 18 14 12 9 8 6
37 40 39 38 36 36 35 36 38 37 36 33 29 26 22 19 16 13 11 9 8 6
34 33 31 33 33 35 35 36 37 37 34 31 29 26 21 19 16 13 11 9 7 6
32 31 30 31 32 34 34 35 39 38 37 33 27 18 22 17 15 12 10 8 6 6
31 32 32 31 31 32 35 35 35 35 32 30 23 24 16 14 12 10 9 6 6 7
25 27 27 29 29 29 28 31 31 27 25 21 21 16 13 12 11 9 6 5 5 6
25 25 28 28 27 27 28 27 27 28 26 20 15 14 13 10 9 6 4 5 4 6
26 28 29 32 32 33 33 31 28 24 22 18 16 12 9 8 6 3 3 2 4 6
28 28 31 32 32 31 31 28 24 19 16 12 12 8 3 4 3 1 1 2 4 6
30 32 32 33 32 30 25 25 23 19 13 8 6 7 5 2 1 2 2 3 5 8
31 33 34 31 27 27 22 18 15 12 12 14 11 6 4 2 2 5 5 4 6 9
23 27 28 28 24 21 18 15 15 14 10 8 8 6 2 4 5 8 8 8 10 12
25 26 25 23 20 19 18 15 13 10 8 6 5 4 1 4 8 8 8 13 17 16
Wind_Direction
213 207 203 199 194 188 189 192 194 192 189 189 187 182 179 179 171 169 171 165 166 174
210 204 201 198 198 190 191 192 190 191 189 182 185 179 179 178 173 171 171 171 168 180
209 207 201 196 190 190 190 189 188 189 186 179 177 176 175 173 172 171 173 180 177 190
200 200 196 191 184 185 184 187 182 183 178 176 176 176 171 178 175 176 172 183 189 211
194 186 189 182 182 186 179 179 181 178 173 176 172 180 171 172 181 175 181 185 202 225
184 176 180 176 174 171 173 174 177 171 174 181 175 182 168 178 179 178 187 192 220 243
161 164 159 159 154 156 158 158 161 165 161 162 169 160 160 179 190 185 182 209 228 244
136 137 137 133 132 140 141 139 141 145 153 154 156 161 174 179 201 189 202 226 253 259
114 117 117 120 128 137 139 140 142 142 147 156 156 167 175 185 209 198 223 261 272 277
114 108 108 115 119 124 128 128 133 143 147 143 146 144 168 205 221 201 315 306 310 310
104 105 112 118 122 125 133 141 145 149 165 152 166 171 170 217 227 13 347 329 323 323
124 126 130 127 132 137 140 146 154 161 154 175 178 180 190 260 10 1 352 341 339 330
123 123 125 135 132 136 139 136 151 170 159 161 185 189 203 302 334 336 334 327 334 330
126 128 125 125 133 139 147 154 147 149 152 169 169 183 272 303 294 313 330 332 327 325
Height
716 718 722 727 733 741 747 753 759 766 770 775 783 787 791 796 797 799 802 802 804 807
711 715 718 722 728 736 743 750 757 764 769 772 781 784 790 793 795 798 801 802 802 805
706 711 714 719 725 734 740 747 754 760 766 772 778 782 787 792 794 795 798 800 800 802
701 709 714 719 724 732 737 744 752 757 764 772 776 780 781 788 791 795 796 799 798 800
701 704 716 719 723 730 735 742 747 753 761 769 773 783 780 786 792 792 795 796 796 798
701 699 713 717 723 729 735 742 748 754 762 770 775 783 784 790 792 792 794 792 793 794
702 705 711 719 724 731 739 744 752 759 767 777 780 784 782 790 796 794 790 790 790 791
704 710 716 722 726 734 741 748 755 763 771 777 784 785 790 793 796 790 789 788 786 788
711 715 720 722 731 736 743 750 759 766 773 781 782 785 787 791 792 787 786 784 786 787
714 722 723 731 738 743 749 755 763 774 774 779 782 782 787 787 789 786 784 784 785 786
719 726 732 739 745 751 757 761 765 768 773 776 784 785 786 787 788 785 784 784 784 784
731 733 738 743 747 753 760 769 771 774 776 780 786 786 787 787 784 784 783 783 782 782
737 738 740 748 753 760 766 770 775 782 780 781 784 786 784 784 783 783 782 782 780 779
741 744 749 752 759 764 768 774 775 778 781 784 784 784 783 783 784 782 780 777 777 776